Flag for United Kingdom Weather past 2 weeks in Cheltenham, England, United Kingdom

Now
30 °F

Clear.


Feels Like: 30 °F
Forecast: N/A
Wind: No wind

Location: Staverton Private

Current Time: Dec 28, 2014 at 6:49:47 PM

Latest Report: Dec 28, 2014 at 6:20 PM


Visibility: 10 mi

Pressure: 30.66 "Hg

Humidity: 100%

Dew point: 30 °F

Location of CheltenhamLocation

Historic Weather in Cheltenham — Graph

°F

Cheltenham temperature yesterday

Maximum temperature yesterday: 45 °F (at 12:50 PM)
Minimum temperature yesterday: 34 °F (at 8:50 AM)
Average temperature yesterday: 39 °F

Past Weeks' High & Low Weather Summary

 TemperatureHumidityPressure
High55 °F (Dec 17, 10:20 AM)100% (Dec 15, 5:50 PM)30.63 "Hg (Dec 15, 5:50 PM)
Low30 °F (Dec 28, 8:20 AM)62% (Dec 19, 2:20 PM)29.65 "Hg (Dec 17, 6:50 AM)
Average47 °F86%30.00 "Hg
* Reported Dec 13 5:20 PM — Dec 28 5:50 PM, Cheltenham, Weather by CustomWeather, © 2014

Note: Actual official high and low records may vary slightly from our data, if they occured in-between our weather recording intervals... More about our weather records

Advertising

Cheltenham weather history for previous 24 hours

 ConditionsComfort  
Time TempWeatherWind HumidityBarometerVisibility
5:50 PM
Dec 28
30 °FClear.No wind93%30.63 "Hg10 mi
5:20 PM34 °FClear.2 mph87%30.63 "Hg10 mi
4:50 PM34 °FClear.2 mph93%30.60 "Hg10 mi
4:20 PM36 °FClear.No wind87%30.60 "Hg10 mi
3:50 PM37 °FSunny.No wind81%30.60 "Hg10 mi
3:20 PM41 °FSunny.No wind76%30.57 "Hg10 mi
2:50 PM39 °FSunny.No wind81%30.57 "Hg10 mi
2:20 PM39 °FSunny.No wind81%30.54 "Hg10 mi
1:50 PM39 °FSunny.No wind81%30.54 "Hg10 mi
1:20 PM39 °FSunny.No wind81%30.54 "Hg10 mi
12:50 PM37 °FSunny.2 mph87%30.54 "Hg10 mi
12:20 PM37 °FSunny.3 mph87%30.54 "Hg10 mi
11:50 AM37 °FSunny.3 mph87%30.51 "Hg10 mi
11:20 AM36 °FSunny.No wind93%30.48 "Hg10 mi
10:50 AM36 °FClear.No wind93%30.48 "Hg6 mi
10:20 AM34 °FClear.No wind93%30.48 "Hg6 mi
9:50 AM32 °FClear.No wind100%30.45 "Hg4 mi
9:20 AM32 °FClear.No wind93%30.45 "Hg4 mi
8:50 AM30 °FPassing clouds.No wind100%30.42 "Hg4 mi
8:20 AM30 °FClear.No wind100%30.42 "Hg4 mi
Weather by CustomWeather, © 2014

See weather overviewHow to use our weather pages